Location: Hamilton
(43.2500°N, 79.8330°W)
Time: 17:21:50
(UTC-04:00)

Amateur Radio Satellites - All Passes

Search period start: 03 August 2015 16:51
Search period end: 04 August 2015 16:51
Location: Hamilton, 43.2500°N, 79.8330°W

Satellite Date Start Highest point End Downlink Frequencies (MHz)
Time Altitude Azimuth
DANDE 03 Aug 16:54:02 16:57:22 23° 263° (W) 17:01:23 436.750
STARS 03 Aug 16:54:03 16:58:30 90° 6° (N) 17:02:58 437.465
CUSAT 1 03 Aug 16:55:35 16:58:43 17° 266° (W) 17:02:10 437.405
AO-7 03 Aug 16:55:54 17:04:07 57° 258° (WSW) 17:12:21 29.400- 29.500
MOZHAYETS 4 03 Aug 17:01:20 17:05:01 24° 92° (E) 17:08:46
KKS-1 03 Aug 17:28:16 17:32:00 26° 293° (WNW) 17:35:39 437.445
HORYU 2 03 Aug 17:35:15 17:38:16 17° 269° (W) 17:41:08 437.375
CUTE-I 03 Aug 17:38:35 17:42:42 24° 64° (ENE) 17:46:57 437.470
VERMONT LUNAR 03 Aug 18:21:42 18:24:30 29° 162° (SSE) 18:27:20 437.305
PCSat 03 Aug 18:21:57 18:27:24 82° 57° (ENE) 18:32:51 145.827
Cubesat XI-IV 03 Aug 18:22:08 18:27:21 55° 72° (ENE) 18:32:37 437.490
SO-50 03 Aug 18:22:55 18:27:53 74° 238° (WSW) 18:32:43 436.795
Cosmos 2499 03 Aug 18:26:06 18:34:15 42° 71° (ENE) 18:42:34 435.465 / 435.565
STARS 03 Aug 18:33:28 18:34:20 10° 300° (WNW) 18:34:57 437.465
GONETS M04 03 Aug 18:37:48 18:46:11 53° 270° (W) 18:54:31
MOZHAYETS 4 03 Aug 18:38:06 18:42:22 36° 290° (WNW) 18:46:33
CUBESAT XI-V 03 Aug 19:02:32 19:06:47 36° 96° (E) 19:11:03 437.345
STRAND 1 03 Aug 19:02:42 19:04:08 11° 86° (E) 19:05:54 437.568
CUTE-I 03 Aug 19:17:18 19:22:30 50° 260° (W) 19:27:43 437.470
PHONESAT 2.4 03 Aug 19:20:47 19:23:10 18° 153° (SSE) 19:25:37 2401.200-2431.200
DOVE 4 03 Aug 19:33:31 19:34:19 11° 62° (ENE) 19:35:20 437.250
HO-68 03 Aug 19:33:47 19:39:18 26° 58° (ENE) 19:45:01 435.675
RS-15 03 Aug 19:52:42 19:58:36 17° 99° (E) 20:05:23 29.354- 29.394
GOMX 1 03 Aug 19:55:34 19:59:10 29° 70° (ENE) 20:02:49 467.674
VERMONT LUNAR 03 Aug 19:57:50 20:00:56 51° 179° (S) 20:04:03 437.305
BRITE-PL 03 Aug 19:58:26 20:02:39 56° 74° (ENE) 20:06:45 437.365/2234.400
Cubesat XI-IV 03 Aug 20:03:52 20:07:52 20° 269° (W) 20:11:42 437.490
COMPASS 1 03 Aug 20:04:37 20:06:17 12° 63° (ENE) 20:08:10 437.405
PCSat 03 Aug 20:07:18 20:10:12 14° 255° (WSW) 20:12:50 145.827
Cosmos 2499 03 Aug 20:19:14 20:27:35 48° 271° (W) 20:35:53 435.465 / 435.565
SEEDS 03 Aug 20:22:28 20:25:49 24° 68° (ENE) 20:29:16 437.485
ISS 03 Aug 20:23:45 20:26:33 27° 138° (SE) 20:29:24 145.825
CUTE 1.7 + AOD 2 03 Aug 20:29:23 20:33:13 34° 70° (ENE) 20:37:09 437.475
PRISM 03 Aug 20:32:05 20:36:12 73° 102° (ESE) 20:40:17 437.425
CANX-2 03 Aug 20:37:56 20:42:01 46° 73° (ENE) 20:46:11 2200.000
STRAND 1 03 Aug 20:39:01 20:44:09 86° 289° (WNW) 20:49:15 437.568
CUBESAT XI-V 03 Aug 20:40:20 20:44:04 24° 293° (WNW) 20:47:40 437.345
AAUSAT CUBESAT 2 03 Aug 20:41:34 20:44:59 25° 69° (ENE) 20:48:29 437.432
Oscar 11 03 Aug 20:46:05 20:48:18 14° 63° (ENE) 20:50:42 145.826/435.025
UWE-3 03 Aug 20:48:55 20:50:24 12° 62° (ENE) 20:52:07 435.000/436.395/437.385
CINEMA 3 03 Aug 20:56:10 20:59:56 35° 71° (ENE) 21:03:52 145.822/145.860
PHONESAT 2.4 03 Aug 20:57:19 21:00:41 44° 169° (S) 21:04:04 2401.200-2431.200
DOVE 4 03 Aug 21:07:25 21:11:33 74° 258° (WSW) 21:15:44 437.250
CUBEBUG 2 03 Aug 21:08:26 21:11:44 23° 67° (ENE) 21:15:13 437.445
HO-68 03 Aug 21:19:22 21:26:30 70° 257° (WSW) 21:33:40 435.675
GOMX 1 03 Aug 21:34:01 21:37:24 23° 267° (W) 21:40:41 467.674
VERMONT LUNAR 03 Aug 21:34:29 21:37:25 34° 195° (SSW) 21:40:20 437.305
COMPASS 1 03 Aug 21:37:15 21:41:27 68° 259° (W) 21:45:41 437.405
BRITE-PL 03 Aug 21:39:38 21:41:37 13° 271° (W) 21:43:22 437.365/2234.400
DELFI C3 03 Aug 21:42:17 21:45:57 34° 71° (ENE) 21:49:40 145.870
ZACube-1 03 Aug 21:51:58 21:55:54 40° 71° (ENE) 21:59:59 437.345
SEEDS 03 Aug 21:57:37 22:01:28 32° 264° (W) 22:05:19 437.485
RS-15 03 Aug 21:58:21 22:09:12 76° 119° (ESE) 22:20:30 29.354- 29.394
ISS 03 Aug 21:59:46 22:02:54 42° 335° (NNW) 22:06:02 145.825
CUTE 1.7 + AOD 2 03 Aug 22:05:49 22:09:14 22° 268° (W) 22:12:34 437.475
PRISM 03 Aug 22:09:47 22:11:06 11° 298° (WNW) 22:12:13 437.425
FUNcube-1 03 Aug 22:12:03 22:16:13 65° 75° (ENE) 22:20:31 145.935
HUMSAT D 03 Aug 22:15:02 22:18:38 30° 70° (ENE) 22:22:22 437.325/437.525
CANX-2 03 Aug 22:15:27 22:18:15 16° 270° (W) 22:20:54 2200.000
AAUSAT CUBESAT 2 03 Aug 22:16:47 22:20:30 29° 265° (W) 22:24:11 437.432
Oscar 11 03 Aug 22:19:44 22:24:02 61° 259° (W) 22:28:22 145.826/435.025
STRAND 1 03 Aug 22:20:30 22:22:39 12° 301° (WNW) 22:24:34 437.568
UWE-3 03 Aug 22:22:10 22:26:22 72° 258° (WSW) 22:30:43 435.000/436.395/437.385
UKube-1 03 Aug 22:22:15 22:25:44 25° 67° (ENE) 22:29:17 .
CINEMA 3 03 Aug 22:34:12 22:37:20 20° 269° (W) 22:40:25 145.822/145.860
PHONESAT 2.4 03 Aug 22:35:00 22:38:27 52° 186° (S) 22:41:52 2401.200-2431.200
AIST 1 03 Aug 22:39:14 22:42:30 21° 71° (ENE) 22:45:51
AISAT 03 Aug 22:42:16 22:45:55 27° 68° (ENE) 22:49:40 437.250
Cosmos 2491 03 Aug 22:43:56 22:51:29 33° 67° (ENE) 22:59:11 435.465 / 435.565
CUBEBUG 2 03 Aug 22:44:30 22:48:18 32° 265° (W) 22:52:11 437.445
CUBEBUG 1 03 Aug 22:48:03 22:50:53 18° 65° (ENE) 22:53:51 437.445
M-CUBED/EXP-1 PRIME 03 Aug 22:50:50 22:55:27 45° 103° (ESE) 22:59:54 437.505
50 SAT 03 Aug 22:51:16 22:54:46 33° 71° (ENE) 22:58:22 437.505
DX 1 03 Aug 22:54:04 22:58:19 58° 73° (ENE) 23:02:37 434.975-435.025
YUBILEINY 03 Aug 23:09:03 23:13:53 17° 77° (ENE) 23:19:13 435.215
VERMONT LUNAR 03 Aug 23:12:40 23:13:35 11° 210° (SSW) 23:14:26 437.305
HO-68 03 Aug 23:13:23 23:15:44 11° 277° (W) 23:17:31 435.675
UNISAT 6 03 Aug 23:14:16 23:18:20 29° 95° (E) 23:22:27 437.425
SPROUT 03 Aug 23:15:24 23:15:30 10° 61° (ENE) 23:15:51 437.525
BEESAT 2 03 Aug 23:15:40 23:19:21 33° 117° (ESE) 23:23:06 435.950
AUBIESAT-1 03 Aug 23:17:14 23:22:00 71° 107° (ESE) 23:26:34 437.475
DELFI C3 03 Aug 23:18:03 23:21:07 20° 268° (W) 23:24:08 145.870
VELOX 1 03 Aug 23:19:34 23:23:55 63° 74° (ENE) 23:28:17 145.980
DUCHIFAT 1 03 Aug 23:22:48 23:24:10 12° 88° (E) 23:25:45 145.980
QB50P1 03 Aug 23:27:43 23:29:53 14° 89° (E) 23:32:15 145.935-145.965
NANOSAT C BR1 03 Aug 23:27:46 23:29:51 14° 89° (E) 23:32:09 145.865
ZACube-1 03 Aug 23:29:29 23:32:31 18° 270° (W) 23:35:27 437.345
AIST 2 03 Aug 23:33:03 23:34:32 12° 110° (ESE) 23:36:14 435.215
ISS 03 Aug 23:37:29 23:39:55 19° 354° (N) 23:42:21 145.825
ESTCUBE 1 03 Aug 23:42:55 23:47:27 78° 75° (ENE) 23:51:59 437.505/2401.250
BEESAT 3 03 Aug 23:50:42 23:54:47 81° 306° (NW) 23:58:54 437.485
HUMSAT D 03 Aug 23:50:58 23:54:24 24° 267° (W) 23:57:50 437.325/437.525
FUNcube-1 03 Aug 23:51:36 23:53:07 11° 273° (W) 23:54:24 145.935
TIGRISAT 03 Aug 23:55:54 00:00:37 74° 102° (ESE) 00:05:19 435.000
UKube-1 03 Aug 23:57:51 00:01:45 32° 264° (W) 00:05:36 .
ANTELSAT 03 Aug 23:59:01 00:03:46 82° 103° (ESE) 00:08:29 437.575/2403.000
POLYITAN 1 04 Aug 00:10:59 00:15:04 42° 98° (E) 00:19:10 437.675
RS-15 04 Aug 00:12:32 00:22:46 40° 326° (NNW) 00:33:19 29.354- 29.394
PHONESAT 2.4 04 Aug 00:13:08 00:16:04 25° 202° (SSW) 00:18:58 2401.200-2431.200
BUGSAT 1 04 Aug 00:15:08 00:18:37 27° 95° (E) 00:22:11 437.445
AIST 1 04 Aug 00:16:26 00:20:15 32° 269° (W) 00:24:00
AISAT 04 Aug 00:18:33 00:22:26 30° 264° (W) 00:26:17 437.250
CUBEBUG 1 04 Aug 00:22:44 00:26:56 47° 261° (W) 00:31:08 437.445
M-CUBED/EXP-1 PRIME 04 Aug 00:26:03 00:29:56 24° 300° (WNW) 00:33:37 437.505
50 SAT 04 Aug 00:26:37 00:29:28 19° 268° (W) 00:32:15 437.505
POPSAT HIP 1 04 Aug 00:26:42 00:30:56 61° 101° (E) 00:35:10 437.405
DX 1 04 Aug 00:32:44 00:35:01 13° 271° (W) 00:37:04 434.975-435.025
QB50P2 04 Aug 00:35:08 00:39:26 80° 102° (ESE) 00:43:43 145.880/145.840
Cosmos 2491 04 Aug 00:40:25 00:48:55 59° 268° (W) 00:57:21 435.465 / 435.565
TISAT 1 04 Aug 00:46:32 00:50:38 58° 74° (ENE) 00:54:45 437.305
SPROUT 04 Aug 00:46:42 00:50:58 87° 257° (WSW) 00:55:17 437.525
UNISAT 6 04 Aug 00:50:55 00:55:05 32° 291° (WNW) 00:59:13 437.425
AUBIESAT-1 04 Aug 00:53:11 00:56:08 16° 303° (WNW) 00:58:54 437.475
BEESAT 2 04 Aug 00:53:52 00:57:26 27° 315° (NW) 01:01:00 435.950
DUCHIFAT 1 04 Aug 00:56:15 01:00:28 65° 286° (WNW) 01:04:40 145.980
VELOX 1 04 Aug 00:58:53 01:00:57 13° 272° (W) 01:02:49 145.980
YUBILEINY 04 Aug 01:00:47 01:09:30 85° 96° (E) 01:18:19 435.215
NANOSAT C BR1 04 Aug 01:01:55 01:06:05 54° 287° (WNW) 01:10:14 145.865
QB50P1 04 Aug 01:01:58 01:06:08 54° 287° (WNW) 01:10:17 145.935-145.965
AIST 2 04 Aug 01:08:20 01:12:35 74° 305° (NW) 01:16:52 435.215
BEESAT 04 Aug 01:12:26 01:16:01 22° 65° (ENE) 01:19:44 436.000
ISS 04 Aug 01:14:25 01:17:08 23° 14° (NNE) 01:19:51 145.825
ESTCUBE 1 04 Aug 01:23:49 01:24:58 11° 274° (W) 01:25:49 437.505/2401.250
BEESAT 3 04 Aug 01:31:28 01:33:26 13° 325° (NW) 01:35:17 437.485
SWISSCUBE 04 Aug 01:32:35 01:36:55 36° 69° (ENE) 01:41:20 437.505
TIGRISAT 04 Aug 01:34:20 01:36:50 14° 298° (WNW) 01:39:08 435.000
ANTELSAT 04 Aug 01:37:48 01:39:57 13° 299° (WNW) 01:41:53 437.575/2403.000
O/OREOS (USA 219) 04 Aug 01:46:55 01:51:23 80° 112° (ESE) 01:55:56 437.305
POLYITAN 1 04 Aug 01:47:36 01:50:42 19° 294° (WNW) 01:53:41 437.675
BUGSAT 1 04 Aug 01:50:38 01:54:02 25° 291° (WNW) 01:57:25 437.445
ITUPSAT 1 04 Aug 01:54:44 01:59:24 53° 72° (ENE) 02:04:07 437.325
POPSAT HIP 1 04 Aug 02:04:07 02:06:22 14° 297° (WNW) 02:08:27 437.405
Cosmos 2504 04 Aug 02:09:54 02:15:46 29° 83° (E) 02:22:09 435.465 / 435.565
QB50P2 04 Aug 02:13:28 02:14:46 11° 298° (WNW) 02:15:50 145.880/145.840
STARS 04 Aug 02:20:00 02:20:16 10° 60° (ENE) 02:20:47 437.465
Gurwin Techsat 1B 04 Aug 02:21:27 02:23:13 12° 86° (E) 02:25:20 435.225
TISAT 1 04 Aug 02:24:56 02:26:50 12° 271° (W) 02:28:33 437.305
ITAMSAT 1 04 Aug 02:26:08 02:27:08 11° 85° (E) 02:28:29 435.822/435.867
RS-15 04 Aug 02:30:37 02:39:27 25° 360° (N) 02:48:36 29.354- 29.394
Oscar 19 04 Aug 02:34:20 02:39:24 52° 100° (E) 02:44:28 437.125/150
BEESAT 04 Aug 02:49:00 02:53:36 45° 262° (W) 02:58:12 436.000
AIST 2 04 Aug 02:49:56 02:51:56 13° 325° (NW) 02:53:51 435.215
ISS 04 Aug 02:50:37 02:53:54 89° 245° (WSW) 02:57:09 145.825
KKS-1 04 Aug 02:50:39 02:54:36 34° 69° (ENE) 02:58:37 437.445
YUBILEINY 04 Aug 03:01:02 03:07:40 22° 300° (WNW) 03:13:59 435.215
SWISSCUBE 04 Aug 03:10:49 03:14:52 26° 266° (W) 03:18:51 437.505
JAS-2 04 Aug 03:15:18 03:21:09 23° 87° (E) 03:27:09 435.910
O/OREOS (USA 219) 04 Aug 03:29:12 03:31:30 13° 312° (NW) 03:33:39 437.305
ITUPSAT 1 04 Aug 03:34:21 03:37:40 18° 270° (W) 03:40:49 437.325
STARS 04 Aug 03:51:42 03:56:04 90° 81° (E) 04:00:29 437.465
Gurwin Techsat 1B 04 Aug 03:58:41 04:04:02 87° 289° (WNW) 04:09:22 435.225
Cosmos 2504 04 Aug 04:00:26 04:07:30 55° 284° (WNW) 04:15:07 435.465 / 435.565
ITAMSAT 1 04 Aug 04:02:18 04:07:31 88° 95° (E) 04:12:42 435.822/435.867
MOZHAYETS 4 04 Aug 04:04:17 04:08:06 26° 67° (ENE) 04:11:59
Oscar 19 04 Aug 04:14:28 04:18:26 22° 296° (WNW) 04:22:16 437.125/150
CUSAT 1 04 Aug 04:22:47 04:25:19 37° 98° (E) 04:27:47 437.405
DANDE 04 Aug 04:25:56 04:28:21 23° 97° (E) 04:30:35 436.750
KKS-1 04 Aug 04:27:42 04:31:19 24° 266° (W) 04:34:51 437.445
ISS 04 Aug 04:28:42 04:29:54 11° 228° (SW) 04:31:00 145.825
RS-15 04 Aug 04:45:42 04:56:16 39° 33° (NNE) 05:07:24 29.354- 29.394
AO-7 04 Aug 04:56:10 05:04:08 48° 100° (E) 05:12:05 29.400- 29.500
JAS-2 04 Aug 04:59:06 05:07:00 79° 286° (WNW) 05:14:41 435.910
HORYU 2 04 Aug 05:23:24 05:27:56 85° 103° (ESE) 05:32:26 437.375
Gurwin Techsat 1B 04 Aug 05:40:46 05:43:19 13° 301° (WNW) 05:45:37 435.225
MOZHAYETS 4 04 Aug 05:40:57 05:45:12 34° 264° (W) 05:49:26
ITAMSAT 1 04 Aug 05:43:48 05:46:22 14° 301° (WNW) 05:48:41 435.822/435.867
GONETS M04 04 Aug 05:43:49 05:51:34 39° 87° (E) 05:59:28
CUBESAT XI-V 04 Aug 06:06:46 06:11:07 41° 71° (ENE) 06:15:30 437.345
STRAND 1 04 Aug 06:18:33 06:22:14 21° 63° (ENE) 06:26:03 437.568
BEESAT 3 04 Aug 06:31:50 06:33:41 13° 35° (NE) 06:35:40 437.485
Cubesat XI-IV 04 Aug 06:39:14 06:42:59 20° 91° (E) 06:46:55 437.490
JAS-2 04 Aug 06:45:42 06:50:58 19° 304° (NW) 06:55:53 435.910
AO-7 04 Aug 06:49:09 06:56:53 43° 299° (WNW) 07:04:29 29.400- 29.500
RS-15 04 Aug 06:58:21 07:10:10 82° 238° (WSW) 07:22:23 29.354- 29.394
HORYU 2 04 Aug 07:02:23 07:03:58 11° 299° (WNW) 07:05:18 437.375
Cosmos 2499 04 Aug 07:05:14 07:11:18 29° 83° (E) 07:17:58 435.465 / 435.565
PRISM 04 Aug 07:22:43 07:26:50 61° 74° (ENE) 07:30:58 437.425
CUTE-I 04 Aug 07:33:07 07:38:23 60° 101° (E) 07:43:38 437.470
BEESAT 2 04 Aug 07:33:32 07:37:11 31° 47° (NE) 07:40:48 435.950
GONETS M04 04 Aug 07:39:58 07:48:19 48° 287° (WNW) 07:56:37
CUBESAT XI-V 04 Aug 07:45:06 07:48:44 22° 268° (W) 07:52:17 437.345
AIST 2 04 Aug 07:51:45 07:54:12 15° 37° (NE) 07:56:44 435.215
STRAND 1 04 Aug 07:56:03 08:01:05 54° 260° (W) 08:06:08 437.568
BRITE-PL 04 Aug 08:02:07 08:04:55 16° 91° (E) 08:08:00 437.365/2234.400
BEESAT 3 04 Aug 08:08:15 08:12:19 84° 55° (NE) 08:16:19 437.485
Cubesat XI-IV 04 Aug 08:18:17 08:23:30 55° 289° (WNW) 08:28:41 437.490
AUBIESAT-1 04 Aug 08:33:32 08:35:27 13° 55° (NE) 08:37:37 437.475
SO-50 04 Aug 08:38:31 08:42:35 29° 114° (ESE) 08:46:49 436.795
AO-7 04 Aug 08:45:51 08:47:37 11° 321° (NW) 08:48:57 29.400- 29.500
HO-68 04 Aug 08:46:54 08:52:05 22° 90° (E) 08:57:32 435.675
Cosmos 2499 04 Aug 08:56:32 09:03:56 58° 284° (WNW) 09:11:58 435.465 / 435.565
PRISM 04 Aug 09:00:58 09:02:44 12° 271° (W) 09:04:17 437.425
PCSat 04 Aug 09:04:24 09:09:43 62° 116° (ESE) 09:15:06 145.827
DOVE 4 04 Aug 09:04:45 09:08:45 28° 94° (E) 09:13:01 437.250
BEESAT 2 04 Aug 09:11:39 09:15:10 28° 245° (WSW) 09:18:35 435.950
RS-15 04 Aug 09:12:44 09:21:14 22° 258° (WSW) 09:29:11 29.354- 29.394
CUTE-I 04 Aug 09:14:13 09:18:03 20° 298° (WNW) 09:21:43 437.470
COMPASS 1 04 Aug 09:20:31 09:23:21 18° 91° (E) 09:26:19 437.405
AIST 2 04 Aug 09:29:09 09:33:22 83° 239° (WSW) 09:37:29 435.215
GOMX 1 04 Aug 09:32:30 09:37:07 82° 104° (ESE) 09:42:03 467.674
M-CUBED/EXP-1 PRIME 04 Aug 09:39:24 09:43:31 64° 69° (ENE) 09:48:01 437.505
BRITE-PL 04 Aug 09:39:25 09:43:45 51° 286° (WNW) 09:48:22 437.365/2234.400
SEEDS 04 Aug 09:40:29 09:44:27 37° 97° (E) 09:48:25 437.485
CUTE 1.7 + AOD 2 04 Aug 09:48:48 09:53:04 58° 100° (E) 09:57:17 437.475
CANX-2 04 Aug 09:57:42 10:02:03 82° 102° (ESE) 10:06:19 2200.000
AAUSAT CUBESAT 2 04 Aug 09:58:06 10:02:02 38° 97° (E) 10:05:57 437.432
FUNcube-1 04 Aug 10:00:58 10:02:53 13° 87° (E) 10:05:02 145.935
AUBIESAT-1 04 Aug 10:05:19 10:09:29 80° 252° (WSW) 10:14:01 437.475
Oscar 11 04 Aug 10:06:35 10:09:58 22° 92° (E) 10:13:26 145.826/435.025
UWE-3 04 Aug 10:11:16 10:14:51 22° 92° (E) 10:18:34 435.000/436.395/437.385
UNISAT 6 04 Aug 10:14:29 10:18:11 28° 68° (ENE) 10:22:03 437.425
DUCHIFAT 1 04 Aug 10:17:13 10:18:10 11° 62° (ENE) 10:19:20 145.980
O/OREOS (USA 219) 04 Aug 10:17:13 10:20:44 22° 54° (NE) 10:24:20 437.305
SO-50 04 Aug 10:18:28 10:23:00 40° 313° (NW) 10:27:39 436.795
NANOSAT C BR1 04 Aug 10:22:06 10:23:54 13° 63° (ENE) 10:25:51 145.865
QB50P1 04 Aug 10:22:15 10:24:07 13° 63° (ENE) 10:26:11 145.935-145.965
CINEMA 3 04 Aug 10:25:46 10:30:32 82° 104° (ESE) 10:35:28 145.822/145.860
HO-68 04 Aug 10:33:24 10:40:35 74° 289° (WNW) 10:47:44 435.675
CUBEBUG 2 04 Aug 10:33:31 10:38:03 47° 98° (E) 10:42:38 437.445
DOVE 4 04 Aug 10:42:19 10:46:32 34° 290° (WNW) 10:50:56 437.250
PCSat 04 Aug 10:49:12 10:53:36 24° 316° (NW) 10:57:57 145.827
DELFI C3 04 Aug 10:54:44 10:58:41 49° 99° (E) 11:02:36 145.870
COMPASS 1 04 Aug 10:55:15 10:59:14 40° 288° (WNW) 11:03:10 437.405
TIGRISAT 04 Aug 10:55:34 10:59:54 71° 76° (ENE) 11:04:24 435.000
Cosmos 2499 04 Aug 10:56:58 10:59:32 11° 310° (NW) 11:01:36 435.465 / 435.565
ANTELSAT 04 Aug 10:58:52 11:03:16 80° 76° (ENE) 11:07:47 437.575/2403.000
POLYITAN 1 04 Aug 11:05:00 11:08:50 36° 70° (ENE) 11:12:43 437.675
BUGSAT 1 04 Aug 11:06:36 11:09:42 22° 68° (ENE) 11:12:54 437.445
YUBILEINY 04 Aug 11:09:49 11:18:09 45° 72° (ENE) 11:26:33 435.215
VELOX 1 04 Aug 11:11:31 11:12:28 11° 87° (E) 11:13:42 145.980
AIST 1 04 Aug 11:11:40 11:13:19 12° 85° (E) 11:15:12
GOMX 1 04 Aug 11:12:52 11:14:48 12° 297° (WNW) 11:16:32 467.674
ZACube-1 04 Aug 11:15:03 11:19:39 78° 101° (ESE) 11:24:15 437.345
SEEDS 04 Aug 11:16:47 11:20:01 21° 293° (WNW) 11:23:08 437.485
M-CUBED/EXP-1 PRIME 04 Aug 11:16:49 11:18:53 13° 268° (W) 11:20:49 437.505
POPSAT HIP 1 04 Aug 11:20:20 11:24:23 51° 73° (ENE) 11:28:30 437.405
CUTE 1.7 + AOD 2 04 Aug 11:26:07 11:28:32 15° 296° (WNW) 11:30:48 437.475
QB50P2 04 Aug 11:28:49 11:32:59 67° 75° (ENE) 11:37:11 145.880/145.840
HUMSAT D 04 Aug 11:32:50 11:37:03 49° 99° (E) 11:41:15 437.325/437.525
AAUSAT CUBESAT 2 04 Aug 11:34:18 11:37:23 19° 293° (WNW) 11:40:21 437.432
FUNcube-1 04 Aug 11:35:10 11:39:43 68° 286° (WNW) 11:44:16 145.935
ESTCUBE 1 04 Aug 11:35:58 11:38:28 15° 89° (E) 11:41:08 437.505/2401.250
CANX-2 04 Aug 11:36:14 11:37:22 11° 298° (WNW) 11:38:17 2200.000
Oscar 11 04 Aug 11:42:16 11:46:16 35° 290° (WNW) 11:50:11 145.826/435.025
UKube-1 04 Aug 11:43:48 11:47:48 37° 98° (E) 11:51:49 .
Cosmos 2491 04 Aug 11:46:52 11:54:26 36° 86° (E) 12:02:10 435.465 / 435.565
UWE-3 04 Aug 11:47:12 11:51:31 40° 289° (WNW) 11:55:52 435.000/436.395/437.385
DUCHIFAT 1 04 Aug 11:49:14 11:53:24 77° 256° (WSW) 11:57:37 145.980
UNISAT 6 04 Aug 11:51:04 11:54:55 29° 265° (W) 11:58:50 437.425
NANOSAT C BR1 04 Aug 11:55:05 11:59:14 65° 259° (WSW) 12:03:26 145.865
QB50P1 04 Aug 11:55:21 11:59:31 63° 259° (WSW) 12:03:42 145.935-145.965
O/OREOS (USA 219) 04 Aug 11:56:01 12:00:25 44° 252° (WSW) 12:04:46 437.305
Cosmos 2504 04 Aug 11:56:04 11:57:56 11° 51° (NE) 12:00:29 435.465 / 435.565
50 SAT 04 Aug 11:59:34 12:03:23 43° 98° (E) 12:07:11 437.505
SO-50 04 Aug 12:03:59 12:04:59 10° 335° (NNW) 12:05:50 436.795
CINEMA 3 04 Aug 12:04:57 12:07:12 13° 297° (WNW) 12:09:15 145.822/145.860
AISAT 04 Aug 12:07:23 12:11:38 45° 99° (E) 12:15:54 437.250
CUBEBUG 1 04 Aug 12:10:36 12:14:19 28° 95° (E) 12:18:05 437.445
CUBEBUG 2 04 Aug 12:10:58 12:14:26 20° 294° (WNW) 12:17:49 437.445
Oscar 19 04 Aug 12:16:57 12:18:40 12° 58° (ENE) 12:20:39 437.125/150
DX 1 04 Aug 12:17:16 12:21:38 86° 285° (WNW) 12:25:59 434.975-435.025
HO-68 04 Aug 12:23:03 12:27:16 16° 308° (NW) 12:31:09 435.675
DELFI C3 04 Aug 12:30:58 12:33:23 15° 295° (WNW) 12:35:39 145.870
SPROUT 04 Aug 12:33:32 12:36:00 15° 90° (E) 12:38:39 437.525
TIGRISAT 04 Aug 12:35:52 12:37:18 11° 274° (W) 12:38:29 435.000
BUGSAT 1 04 Aug 12:41:28 12:45:04 30° 264° (W) 12:48:37 437.445
POLYITAN 1 04 Aug 12:41:42 12:44:52 20° 268° (W) 12:47:58 437.675
VELOX 1 04 Aug 12:45:13 12:49:38 74° 286° (WNW) 12:54:02 145.980
AIST 1 04 Aug 12:46:14 12:50:31 58° 281° (W) 12:54:47
ZACube-1 04 Aug 12:53:21 12:55:27 13° 298° (WNW) 12:57:21 437.345
POPSAT HIP 1 04 Aug 12:58:18 13:00:38 14° 271° (W) 13:02:48 437.405
YUBILEINY 04 Aug 13:06:49 13:15:00 43° 272° (W) 13:23:03 435.215
QB50P2 04 Aug 13:08:11 13:09:25 11° 273° (W) 13:10:24 145.880/145.840
HUMSAT D 04 Aug 13:09:33 13:12:26 17° 295° (WNW) 13:15:10 437.325/437.525
ESTCUBE 1 04 Aug 13:11:20 13:15:45 55° 287° (WNW) 13:20:07 437.505/2401.250
UKube-1 04 Aug 13:20:23 13:23:44 22° 294° (WNW) 13:26:59 .
JAS-2 04 Aug 13:32:42 13:34:27 11° 48° (NE) 13:36:37 435.910
50 SAT 04 Aug 13:35:06 13:37:39 16° 294° (WNW) 13:40:03 437.505
Cosmos 2491 04 Aug 13:42:31 13:51:03 53° 286° (WNW) 13:59:32 435.465 / 435.565
Gurwin Techsat 1B 04 Aug 13:42:33 13:46:35 23° 64° (ENE) 13:50:44 435.225
ITAMSAT 1 04 Aug 13:43:42 13:47:26 21° 63° (ENE) 13:51:20 435.822/435.867
Cosmos 2504 04 Aug 13:44:19 13:52:33 54° 75° (ENE) 14:00:59 435.465 / 435.565
AISAT 04 Aug 13:44:46 13:47:55 19° 295° (WNW) 13:50:57 437.250
CUBEBUG 1 04 Aug 13:46:55 13:50:39 28° 292° (WNW) 13:54:17 437.445
Oscar 19 04 Aug 13:52:11 13:57:17 83° 77° (ENE) 14:02:28 437.125/150
ITUPSAT 1 04 Aug 13:56:18 13:58:09 12° 87° (E) 14:00:15 437.325
TISAT 1 04 Aug 14:05:19 14:09:33 88° 289° (WNW) 14:13:47 437.305
AO-7 04 Aug 14:07:47 14:12:42 18° 47° (NE) 14:17:56 29.400- 29.500
SPROUT 04 Aug 14:08:15 14:12:25 50° 287° (WNW) 14:16:35 437.525
BEESAT 04 Aug 14:48:01 14:52:33 42° 98° (E) 14:57:04 436.000
HORYU 2 04 Aug 14:50:13 14:50:51 10° 60° (ENE) 14:51:43 437.375
CUSAT 1 04 Aug 14:53:49 14:58:03 42° 77° (ENE) 15:03:37 437.405
DANDE 04 Aug 15:00:40 15:04:13 29° 76° (ENE) 15:08:49 436.750
SWISSCUBE 04 Aug 15:09:00 15:13:48 75° 103° (ESE) 15:18:33 437.505
JAS-2 04 Aug 15:11:47 15:17:54 54° 69° (ENE) 15:24:52 435.910
Gurwin Techsat 1B 04 Aug 15:21:06 15:26:15 51° 261° (W) 15:31:27 435.225
ITAMSAT 1 04 Aug 15:21:28 15:26:35 55° 260° (W) 15:31:43 435.822/435.867
SO-50 04 Aug 15:30:29 15:31:05 10° 24° (NNE) 15:31:50 436.795
ITUPSAT 1 04 Aug 15:31:53 15:36:40 74° 287° (WNW) 15:41:25 437.325
Oscar 19 04 Aug 15:35:18 15:37:26 12° 274° (W) 15:39:15 437.125/150
Cosmos 2504 04 Aug 15:36:59 15:44:32 36° 274° (W) 15:52:00 435.465 / 435.565
STARS 04 Aug 15:41:35 15:44:09 15° 90° (E) 15:46:52 437.465
Cosmos 2491 04 Aug 15:48:45 15:50:40 10° 312° (NW) 15:51:54 435.465 / 435.565
GONETS M04 04 Aug 15:52:42 15:58:41 21° 59° (ENE) 16:05:02
AO-7 04 Aug 15:55:53 16:04:10 70° 68° (ENE) 16:12:30 29.400- 29.500
PCSat 04 Aug 16:09:22 16:12:00 14° 34° (NNE) 16:14:49 145.827
KKS-1 04 Aug 16:16:33 16:20:59 60° 101° (E) 16:25:23 437.445
HORYU 2 04 Aug 16:22:22 16:26:50 88° 72° (ENE) 16:31:20 437.375
BEESAT 04 Aug 16:26:23 16:30:09 23° 295° (WNW) 16:33:49 436.000
CUSAT 1 04 Aug 16:36:53 16:40:33 22° 265° (W) 16:44:51 437.405
DANDE 04 Aug 16:43:46 16:47:17 25° 263° (W) 16:51:36 436.750
